Temp
65 65 64 63 63 64 64 64 64 64 64 65 65 65 63 62 61 60 60 60 58 57
63 62 62 61 62 62 62 61 61 62 62 62 62 63 61 58 58 57 56 56 56 56
61 60 60 60 60 60 60 59 59 60 60 60 60 60 60 59 59 57 56 56 56 56
60 59 59 59 60 59 59 58 58 58 57 58 58 59 58 57 57 57 56 57 56 55
58 58 57 58 58 58 57 57 56 56 56 56 56 57 57 55 54 54 54 54 53 52
57 56 56 57 57 56 55 55 55 54 54 53 53 54 55 54 53 52 52 51 51 50
55 55 56 56 55 54 54 52 51 51 52 51 50 48 48 49 49 48 48 48 48 47
54 54 53 52 51 50 49 48 47 47 47 48 46 46 45 45 45 44 43 43 43 44
52 51 49 49 48 47 45 45 44 44 45 45 46 44 44 45 43 43 42 40 41 41
51 47 46 47 45 44 42 42 42 43 44 43 43 43 43 44 43 40 39 39 39 41
48 46 45 44 43 42 41 41 41 42 43 42 42 42 41 42 39 37 38 38 39 40
47 44 43 41 41 41 40 38 36 39 40 37 38 41 40 39 37 35 36 39 41 41
46 44 42 41 39 39 38 35 36 34 35 38 36 40 40 38 38 36 37 38 38 39
45 43 42 39 38 36 35 35 35 34 34 36 38 40 40 40 38 38 37 37 37 38
MSLP
1017.53 1017.68 1017.88 1018.09 1018.24 1018.24 1018.27 1018.29 1018.30 1018.40 1018.32 1018.14 1018.12 1018.05 1018.10 1018.21 1018.24 1018.33 1018.26 1018.16 1018.24 1018.41
1017.61 1017.80 1018.03 1018.35 1018.60 1018.54 1018.64 1018.74 1018.70 1018.54 1018.51 1018.36 1018.37 1018.29 1018.34 1018.54 1018.62 1018.61 1018.66 1018.63 1018.48 1018.68
1017.80 1018.11 1018.37 1018.52 1018.52 1018.67 1018.79 1018.95 1018.93 1018.79 1018.69 1018.64 1018.56 1018.34 1018.52 1018.68 1018.80 1018.80 1018.91 1018.97 1018.92 1018.94
1017.82 1018.16 1018.43 1018.54 1018.49 1018.72 1018.95 1019.01 1019.03 1019.00 1019.00 1018.90 1018.69 1018.60 1018.71 1019.02 1019.08 1018.92 1018.98 1019.04 1019.10 1019.33
1017.80 1018.04 1018.31 1018.50 1018.76 1018.92 1019.03 1018.99 1019.10 1019.14 1019.27 1019.20 1019.02 1018.87 1018.90 1019.14 1019.41 1019.25 1019.28 1019.42 1019.69 1019.89
1017.69 1018.07 1018.17 1018.36 1018.65 1019.02 1019.26 1019.18 1019.03 1019.26 1019.37 1019.50 1019.54 1019.33 1019.29 1019.42 1019.65 1019.70 1019.83 1019.92 1020.19 1020.33
1017.70 1018.05 1018.27 1018.45 1018.78 1019.10 1019.48 1019.50 1019.57 1019.51 1019.63 1019.92 1020.13 1020.12 1020.17 1020.16 1020.26 1020.60 1020.58 1020.63 1020.81 1020.91
1017.70 1018.07 1018.47 1018.65 1019.45 1019.83 1019.73 1019.91 1020.05 1020.10 1020.09 1020.17 1020.57 1020.74 1020.58 1020.51 1020.71 1021.03 1021.23 1021.44 1021.41 1021.47
1017.71 1018.18 1018.64 1019.07 1019.55 1020.11 1020.14 1020.14 1020.38 1020.35 1020.44 1020.59 1020.75 1020.98 1020.96 1020.77 1020.94 1021.33 1021.57 1021.63 1021.85 1022.06
1017.67 1018.38 1018.95 1019.22 1019.58 1020.26 1020.55 1020.60 1020.53 1020.53 1020.50 1021.01 1021.11 1021.22 1021.38 1021.04 1021.16 1021.39 1022.15 1022.18 1022.21 1022.28
1017.73 1018.45 1019.07 1019.58 1020.02 1020.29 1020.51 1020.95 1020.72 1020.69 1020.94 1021.11 1021.30 1021.53 1021.72 1021.84 1021.85 1021.91 1022.24 1022.60 1022.68 1022.57
1017.69 1018.44 1019.06 1019.58 1019.90 1020.28 1020.61 1021.14 1021.21 1021.09 1021.14 1021.49 1021.67 1021.72 1021.94 1022.14 1022.53 1022.54 1022.60 1022.81 1022.79 1022.48
1017.54 1018.22 1018.80 1019.34 1019.87 1020.34 1020.84 1021.17 1021.41 1021.64 1021.61 1021.64 1021.78 1021.94 1022.09 1022.38 1022.49 1022.50 1022.44 1022.75 1022.78 1022.79
1017.46 1018.13 1018.67 1019.21 1019.77 1020.33 1020.66 1021.09 1021.38 1021.50 1021.48 1021.64 1021.89 1021.86 1022.13 1022.37 1022.30 1022.16 1022.31 1022.51 1022.69 1022.77
Wind_Speed
4 2 1 0 2 3 3 3 4 5 5 5 6 6 5 3 2 4 3 1 2 2
4 2 1 1 2 3 3 3 4 5 5 4 5 4 3 2 2 3 3 3 4 3
3 2 0 2 3 3 3 4 5 5 4 4 3 3 2 2 2 2 2 1 3 4
3 1 2 3 3 3 4 3 4 4 5 4 3 2 1 1 2 2 1 0 2 2
3 3 3 4 4 4 5 3 4 4 4 4 3 3 2 3 3 2 2 3 3 3
3 4 4 4 4 3 4 3 3 3 3 3 3 2 1 2 2 3 4 3 3 3
4 4 4 3 4 3 2 2 2 2 0 1 3 3 3 3 4 5 6 6 6 6
4 4 4 2 2 2 2 1 1 1 1 3 1 1 3 5 5 6 7 7 7 7
5 4 4 5 4 3 3 3 2 3 3 3 2 5 5 6 6 5 6 6 5 5
6 6 6 5 5 5 3 3 3 3 4 4 3 5 5 6 5 5 3 3 3 3
7 7 7 6 6 5 4 3 3 4 4 4 4 6 6 6 5 4 4 3 2 4
9 8 8 6 5 4 4 3 2 2 4 4 3 6 6 5 2 3 3 3 0 2
8 9 8 7 6 4 5 4 3 3 3 4 1 5 5 3 1 3 3 3 2 1
8 7 7 6 5 4 5 5 4 4 3 3 5 5 6 5 2 1 1 1 2 2
Wind_Direction
147 156 158 139 302 277 290 307 320 303 297 293 298 291 334 319 25 345 324 212 80 137
143 127 86 315 298 306 312 312 303 295 291 295 289 290 282 1 48 71 58 47 87 96
126 103 252 264 275 294 295 294 296 290 292 291 294 311 322 270 253 125 80 51 95 93
165 227 284 278 276 276 292 287 285 301 295 290 298 297 214 270 262 226 213 115 183 126
186 216 252 264 272 283 276 279 299 294 289 289 297 303 272 176 230 204 166 112 130 110
225 245 255 252 247 248 267 264 267 281 291 297 314 300 70 102 102 89 83 76 83 81
230 245 258 241 232 231 250 279 335 347 49 4 23 37 60 80 87 75 72 70 70 66
201 202 201 187 220 202 153 113 101 93 61 101 143 131 126 116 117 110 97 77 68 64
189 178 186 187 185 190 159 138 140 137 119 115 128 134 133 125 116 119 116 109 90 90
185 186 196 192 180 175 169 150 144 130 127 120 117 107 102 110 113 90 93 112 131 118
181 194 188 186 183 166 161 173 152 139 123 143 115 113 100 86 63 77 80 101 153 173
186 183 178 182 174 162 148 119 56 83 104 96 120 126 120 96 122 114 154 186 91 48
189 185 180 173 158 154 156 134 139 108 128 151 83 158 153 176 175 187 149 167 118 29
181 181 176 153 151 146 142 146 153 161 166 181 202 191 187 199 235 181 179 149 202 140